Noervenich, Germany

6:56 PM CET on February 24, 2017 (GMT +0100)
Norvenich Air Base

Weather History for ETNN - December, 2012

Change the Weather History Date:

Monday, December 31, 2012

  Actual Average Record
Temperature  
Mean Temperature 48 °F -  
Max Temperature 50 °F 41 °F 55 °F (2006)
Min Temperature 46 °F 30 °F 3 °F (1996)
Degree Days  
Heating Degree Days 17    
Moisture  
Dew Point 37 °F    
Average Humidity 65    
Maximum Humidity 71    
Minimum Humidity 62    
Precipitation  
Precipitation 0.00 in - - ()
Sea Level Pressure  
Sea Level Pressure 29.91 in    
Wind  
Wind Speed 11 mph ()    
Max Wind Speed 15 mph    
Max Gust Speed 24 mph    
Visibility 6.2 miles    
Events      
Averages and records for this station are not official NWS values.
T = Trace of Precipitation, MM = Missing Value Source: Averaged Metar Reports

Daily Weather History Graph

Daily Weather History Graph

Search for Another Location

Airport or City:

Trip Planner

Search our weather history database for the weather conditions in past years. The results will help you decide how hot, cold, wet, or windy it might be!

Date:

Astronomy

Dec. 31, 2012 Rise Set
Actual Time 8:35 AM CET 4:37 PM CET
Civil Twilight 7:56 AM CET 5:16 PM CET
Nautical Twilight 7:14 AM CET 5:58 PM CET
Astronomical Twilight 6:34 AM CET 6:38 PM CET
Moon 8:15 PM CET (12/31) 9:48 AM CET (12/31)
Length of Visible Light 9h 20m
Length of Day
8h 01m
Waning Gibbous, 92% of the Moon is Illuminated
Dec 31
Waning Gibbous
Jan 5
Last Quarter
Jan 11
New
Jan 19
First Quarter
Jan 27
Full

Hourly Weather History & Observations

Time (CET) Temp. Windchill Dew Point Humidity Pressure Visibility Wind Dir Wind Speed Gust Speed Precip Events Conditions
12:20 AM 48.2 °F - 37.4 °F 66% 30.06 in 6.2 mi WSW 15.0 mph - N/A   Partly Cloudy
1:20 AM 48.2 °F - 37.4 °F 66% 30.06 in 6.2 mi SW 11.5 mph - N/A   Scattered Clouds
2:20 AM 46.4 °F 41.5 °F 37.4 °F 71% 30.06 in 6.2 mi SW 10.4 mph - N/A   Mostly Cloudy
3:20 AM 46.4 °F 41.1 °F 37.4 °F 71% 30.06 in 6.2 mi SW 11.5 mph - N/A   Mostly Cloudy
4:20 AM 46.4 °F 41.9 °F 37.4 °F 71% 30.04 in 6.2 mi SSW 9.2 mph - N/A   Mostly Cloudy
5:20 AM 46.4 °F 40.7 °F 35.6 °F 66% 30.01 in 6.2 mi SW 12.7 mph - N/A   Mostly Cloudy
6:20 AM 48.2 °F - 35.6 °F 62% 30.01 in 6.2 mi SW 11.5 mph - N/A   Mostly Cloudy
7:20 AM 46.4 °F 40.7 °F 35.6 °F 66% 30.01 in 6.2 mi SW 12.7 mph - N/A   Mostly Cloudy
8:20 AM 48.2 °F - 37.4 °F 66% 29.98 in 6.2 mi SW 8.1 mph - N/A   Mostly Cloudy
9:20 AM 48.2 °F - 37.4 °F 66% 29.98 in 6.2 mi SSW 11.5 mph - N/A   Mostly Cloudy
10:20 AM 48.2 °F - 37.4 °F 66% 29.98 in 6.2 mi SW 15.0 mph - N/A   Mostly Cloudy
11:20 AM 48.2 °F - 37.4 °F 66% 29.95 in 6.2 mi SW 13.8 mph - N/A   Mostly Cloudy
12:20 PM 50.0 °F - 37.4 °F 62% 29.95 in 6.2 mi SW 11.5 mph - N/A   Mostly Cloudy
1:20 PM 50.0 °F - 37.4 °F 62% 29.92 in 6.2 mi SW 11.5 mph - N/A   Mostly Cloudy
2:20 PM 50.0 °F - 37.4 °F 62% 29.89 in 6.2 mi SW 11.5 mph 24.2 mph N/A   Mostly Cloudy
3:20 PM 50.0 °F - 37.4 °F 62% 29.86 in 6.2 mi SW 15.0 mph - N/A   Mostly Cloudy
4:20 PM 50.0 °F - 37.4 °F 62% 29.83 in 6.2 mi SSW 12.7 mph - N/A   Mostly Cloudy
5:20 PM 50.0 °F - 39.2 °F 66% 29.83 in 6.2 mi SSW 11.5 mph - N/A   Mostly Cloudy
6:20 PM 48.2 °F - 39.2 °F 71% 29.80 in 6.2 mi South 10.4 mph - N/A   Mostly Cloudy
7:20 PM 50.0 °F - 39.2 °F 66% 29.77 in 6.2 mi SSW 10.4 mph - N/A   Mostly Cloudy
8:20 PM 50.0 °F - 39.2 °F 66% 29.74 in 6.2 mi South 9.2 mph - N/A   Mostly Cloudy
9:20 PM 50.0 °F - 37.4 °F 62% 29.71 in 6.2 mi SSW 12.7 mph - N/A   Mostly Cloudy
10:20 PM 50.0 °F - 37.4 °F 62% 29.68 in 6.2 mi SSW 13.8 mph - N/A   Mostly Cloudy
11:20 PM 50.0 °F - 37.4 °F 62% 29.68 in 6.2 mi SW 15.0 mph - N/A   Mostly Cloudy